Home > Time Zones > World Clock > Weather > China > Hefei > Past weeks

Flag for China Weather past 2 weeks in Hefei, Anhui, China

Now
77 °F

Sprinkles. Fog.


Feels Like: 78 °F
Forecast: 74 / 83 °F
Wind: 1 mph from Southeast

Location: Hefei Airport

Current Time: Sep 5, 2015 at 12:45:27 AM

Latest Report: Sep 5, 2015 at 12:00 AM


Visibility: 1 mi

Pressure: 29.74 "Hg

Humidity: 94%

Dew point: 75 °F

Location of HefeiLocation

Historic Weather in Hefei — Graph

°F

Hefei temperature yesterday

Maximum temperature yesterday: 88 °F (at 1:00 PM)
Minimum temperature yesterday: 73 °F (at 12:00 AM)
Average temperature yesterday: 79 °F

Past Weeks' High & Low Weather Summary

 TemperatureHumidityPressure
High88 °F (Aug 22, 3:00 PM)100% (Aug 20, 11:00 PM)29.98 "Hg (Aug 20, 11:00 PM)
Low66 °F (Sep 2, 5:00 AM)49% (Aug 30, 2:00 PM)29.65 "Hg (Aug 22, 4:00 PM)
Average78 °F81%29.80 "Hg
* Reported Aug 20 11:00 PM — Sep 4 11:00 PM, Hefei, Weather by CustomWeather, © 2015

Note: Actual official high and low records may vary slightly from our data, if they occured in-between our weather recording intervals... More about our weather records

Advertising

Hefei weather history for previous 24 hours

 ConditionsComfort  
Time TempWeatherWind HumidityBarometerVisibility
11:00 PM
Fri, Sep 4
77 °FSprinkles. Fog.1 mph94%29.77 "Hg2 mi
10:00 PM75 °FFog.6 mph100%29.77 "Hg2 mi
9:00 PM75 °FThunderstorms. Fog.6 mph100%29.80 "Hg2 mi
8:00 PM77 °FThunderstorms. Fog.3 mph94%29.80 "Hg3 mi
7:00 PM79 °FThunderstorms. Fog.3 mph94%29.77 "Hg2 mi
6:00 PM81 °FSprinkles. Fog.6 mph89%29.77 "Hg3 mi
5:00 PM84 °FScattered clouds.3 mph74%29.77 "Hg4 mi
4:00 PM86 °FScattered clouds.8 mph70%29.77 "Hg4 mi
3:00 PM88 °FClear.8 mph62%29.80 "Hg5 mi
2:00 PM88 °FClear.8 mph59%29.80 "Hg5 mi
1:00 PM88 °FClear.6 mph59%29.83 "Hg5 mi
12:00 PM86 °FClear.6 mph62%29.86 "Hg4 mi
11:00 AM84 °FClear.8 mph62%29.89 "Hg4 mi
10:00 AM82 °FClear.8 mph66%29.89 "Hg4 mi
9:00 AM79 °FFog.8 mph79%29.89 "Hg2 mi
8:00 AM75 °FFog.6 mph83%29.92 "Hg2 mi
7:00 AM73 °FFog.6 mph89%29.89 "Hg2 mi
6:00 AM73 °FFog.6 mph89%29.89 "Hg2 mi
5:00 AM73 °FFog.6 mph89%29.89 "Hg3 mi
4:00 AM73 °FFog.6 mph89%29.89 "Hg3 mi
3:00 AM73 °FFog.6 mph89%29.92 "Hg3 mi
2:00 AM73 °FFog.6 mph89%29.92 "Hg2 mi
1:00 AM73 °FFog.3 mph89%29.95 "Hg2 mi
12:00 AM73 °FFog.3 mph89%29.95 "Hg2 mi
Weather by CustomWeather, © 2015

See weather overviewHow to use our weather pages